CMP398 SKRG-MPTO

Flight info

Callsign CMP398
Flight time 0h 48m
Altitude 32000
Route OPMEL3C OPMEL DCT SIGUN DCT ISOKO ISOKO2C
Aircraft B38M/M-SDE1FGHILORVWXY/HB1

Departure

Time 2026-04-27 01:49
Airport Jose Maria Córdova International Airport (SKRG)

Arrival

Time 2026-04-27 02:38
Airport Tocumen International Airport (MPTO)
Time Latitude Longitude Altitude Speed Heading
2026-04-27 01:27 6.17030 -75.42713 7020 ft 0 kts 308°
2026-04-27 01:40 6.17029 -75.42712 7020 ft 2 kts 308°
2026-04-27 01:40 6.17018 -75.42698 7023 ft 3 kts 317°
2026-04-27 01:40 6.16997 -75.42682 7020 ft 4 kts 329°
2026-04-27 01:40 6.16980 -75.42673 7024 ft 1 kts 332°
2026-04-27 01:41 6.16978 -75.42671 7023 ft 0 kts 332°
2026-04-27 01:43 6.16983 -75.42672 7023 ft 1 kts 351°
2026-04-27 01:44 6.17005 -75.42665 7020 ft 6 kts 22°
2026-04-27 01:44 6.17038 -75.42609 7021 ft 14 kts 101°
2026-04-27 01:44 6.16959 -75.42547 7015 ft 16 kts 149°
2026-04-27 01:44 6.16847 -75.42490 7004 ft 21 kts 166°
2026-04-27 01:45 6.16689 -75.42482 6999 ft 25 kts 180°
2026-04-27 01:45 6.16507 -75.42482 6985 ft 28 kts 180°
2026-04-27 01:45 6.16302 -75.42479 6983 ft 31 kts 179°
2026-04-27 01:45 6.16085 -75.42476 6979 ft 32 kts 179°
2026-04-27 01:46 6.15865 -75.42475 6977 ft 32 kts 180°
2026-04-27 01:46 6.15646 -75.42473 6978 ft 31 kts 179°
2026-04-27 01:46 6.15434 -75.42472 6979 ft 30 kts 180°
2026-04-27 01:46 6.15227 -75.42472 6978 ft 30 kts 179°
2026-04-27 01:47 6.15026 -75.42472 6980 ft 21 kts 180°
2026-04-27 01:47 6.14921 -75.42463 6980 ft 15 kts 150°
2026-04-27 01:47 6.14885 -75.42363 6978 ft 18 kts 83°
2026-04-27 01:47 6.14966 -75.42300 6979 ft 0 kts
2026-04-27 01:48 6.15022 -75.42299 6981 ft 29 kts
2026-04-27 01:48 6.15403 -75.42301 6984 ft 79 kts 359°
2026-04-27 01:48 6.16106 -75.42306 6978 ft 122 kts 360°
2026-04-27 01:48 6.17070 -75.42314 7018 ft 154 kts 360°
2026-04-27 01:49 6.18224 -75.42318 7107 ft 172 kts 360°
2026-04-27 01:49 6.19392 -75.42368 7605 ft 166 kts 357°
2026-04-27 01:49 6.20579 -75.42362 7834 ft 178 kts
2026-04-27 01:49 6.21872 -75.42327 8014 ft 193 kts 360°
2026-04-27 01:50 6.23214 -75.42325 8426 ft 193 kts 360°
2026-04-27 01:50 6.24572 -75.42323 8783 ft 202 kts 360°
2026-04-27 01:50 6.26025 -75.42322 9065 ft 221 kts
2026-04-27 01:50 6.27646 -75.42321 9306 ft 245 kts 360°
2026-04-27 01:51 6.29339 -75.42321 10129 ft 244 kts
2026-04-27 01:51 6.31073 -75.42321 10704 ft 252 kts
2026-04-27 01:51 6.32819 -75.42321 11446 ft 252 kts 360°
2026-04-27 01:51 6.34584 -75.42322 12123 ft 256 kts 360°
2026-04-27 01:52 6.36427 -75.42322 12571 ft 274 kts 360°
2026-04-27 01:52 6.38402 -75.42323 12939 ft 294 kts 360°
2026-04-27 01:52 6.40514 -75.42366 13272 ft 314 kts 352°
2026-04-27 01:52 6.42624 -75.43083 13649 ft 330 kts 328°
2026-04-27 01:53 6.44335 -75.44651 14168 ft 341 kts 305°
2026-04-27 01:53 6.45560 -75.46724 14737 ft 347 kts 300°
2026-04-27 01:53 6.46788 -75.48824 15455 ft 350 kts 301°
2026-04-27 01:53 6.48028 -75.50951 16106 ft 354 kts 300°
2026-04-27 01:54 6.49276 -75.53102 16774 ft 358 kts 300°
2026-04-27 01:54 6.50535 -75.55275 17426 ft 362 kts 300°
2026-04-27 01:54 6.51807 -75.57472 18049 ft 365 kts 300°
2026-04-27 01:54 6.53090 -75.59691 18655 ft 368 kts 299°
2026-04-27 01:55 6.54379 -75.61929 18803 ft 374 kts 300°
2026-04-27 01:55 6.55686 -75.64182 19347 ft 373 kts 300°
2026-04-27 01:55 6.56996 -75.66445 19877 ft 376 kts 300°
2026-04-27 01:55 6.58322 -75.68738 20377 ft 380 kts 300°
2026-04-27 01:56 6.60996 -75.73367 21374 ft 386 kts 300°
2026-04-27 01:56 6.62353 -75.75717 21866 ft 390 kts 300°
2026-04-27 01:56 6.63721 -75.78084 22334 ft 393 kts 300°
2026-04-27 01:57 6.65080 -75.80436 22819 ft 395 kts 300°
2026-04-27 01:57 6.66485 -75.82868 23306 ft 398 kts 300°
2026-04-27 01:57 6.67882 -75.85287 23762 ft 402 kts 300°
2026-04-27 01:57 6.69271 -75.87692 24164 ft 405 kts 300°
2026-04-27 01:58 6.70704 -75.90176 24557 ft 407 kts 300°
2026-04-27 01:58 6.72114 -75.92617 24940 ft 410 kts 300°
2026-04-27 01:58 6.73526 -75.95120 25308 ft 413 kts 295°
2026-04-27 01:58 6.74525 -75.97830 25702 ft 414 kts 288°
2026-04-27 01:59 6.75484 -76.00578 26047 ft 418 kts 289°
2026-04-27 01:59 6.76450 -76.03339 26433 ft 420 kts 289°
2026-04-27 01:59 6.77419 -76.06126 26811 ft 423 kts 288°
2026-04-27 01:59 6.78391 -76.08925 27154 ft 425 kts 288°
2026-04-27 02:00 6.79369 -76.11744 27514 ft 428 kts 288°
2026-04-27 02:00 6.80353 -76.14581 27874 ft 431 kts 288°
2026-04-27 02:00 6.81342 -76.17435 28225 ft 433 kts 288°
2026-04-27 02:00 6.82338 -76.20307 28568 ft 436 kts 288°
2026-04-27 02:01 6.83339 -76.23196 28895 ft 438 kts 288°
2026-04-27 02:01 6.84346 -76.26102 29232 ft 441 kts 288°
2026-04-27 02:01 6.85358 -76.29025 29552 ft 444 kts 288°
2026-04-27 02:01 6.86374 -76.31959 29896 ft 446 kts 288°
2026-04-27 02:02 6.87398 -76.34916 30219 ft 448 kts 288°
2026-04-27 02:02 6.88426 -76.37887 30458 ft 451 kts 288°
2026-04-27 02:02 6.89459 -76.40873 30749 ft 453 kts 288°
2026-04-27 02:02 6.90497 -76.43870 31018 ft 455 kts 287°
2026-04-27 02:03 6.91537 -76.46878 31295 ft 456 kts 287°
2026-04-27 02:03 6.92582 -76.49900 31583 ft 458 kts 287°
2026-04-27 02:03 6.93632 -76.52935 31808 ft 460 kts 287°
2026-04-27 02:03 6.94686 -76.55986 32044 ft 463 kts 287°
2026-04-27 02:04 6.96811 -76.62135 32071 ft 470 kts 287°
2026-04-27 02:04 6.98983 -76.68425 32031 ft 482 kts 287°
2026-04-27 02:05 7.01202 -76.74851 32034 ft 487 kts 287°
2026-04-27 02:05 7.03411 -76.81254 32016 ft 487 kts 287°
2026-04-27 02:06 7.05632 -76.87694 32024 ft 487 kts 287°
2026-04-27 02:06 7.07858 -76.94151 31991 ft 488 kts 287°
2026-04-27 02:07 7.10080 -77.00602 31999 ft 488 kts 287°
2026-04-27 02:07 7.12305 -77.07062 31991 ft 488 kts 287°
2026-04-27 02:08 7.14528 -77.13523 31981 ft 488 kts 287°
2026-04-27 02:08 7.16389 -77.18931 31978 ft 488 kts 287°
2026-04-27 02:09 7.18610 -77.25392 31979 ft 488 kts 287°
2026-04-27 02:09 7.20832 -77.31856 31980 ft 489 kts 287°
2026-04-27 02:10 7.23056 -77.38329 31976 ft 489 kts 287°
2026-04-27 02:10 7.25263 -77.44758 31974 ft 489 kts 287°
2026-04-27 02:11 7.27482 -77.51224 31974 ft 489 kts 287°
2026-04-27 02:11 7.29704 -77.57702 31965 ft 489 kts 287°
2026-04-27 02:12 7.31923 -77.64176 31965 ft 489 kts 287°
2026-04-27 02:12 7.34143 -77.70654 31956 ft 489 kts 287°
2026-04-27 02:13 7.36359 -77.77129 31955 ft 489 kts 287°
2026-04-27 02:13 7.38737 -77.83546 31928 ft 491 kts 297°
2026-04-27 02:14 7.40725 -77.86336 31960 ft 492 kts 310°
2026-04-27 02:14 7.42978 -77.88943 31954 ft 494 kts 309°
2026-04-27 02:14 7.47475 -77.94179 31966 ft 495 kts 309°
2026-04-27 02:15 7.51991 -77.99414 31953 ft 495 kts 309°
2026-04-27 02:15 7.56505 -78.04651 31953 ft 495 kts 309°
2026-04-27 02:16 7.61022 -78.09893 31958 ft 495 kts 309°
2026-04-27 02:16 7.65508 -78.15103 31946 ft 495 kts 309°
2026-04-27 02:17 7.70020 -78.20343 31945 ft 495 kts 309°
2026-04-27 02:17 7.74534 -78.25588 31948 ft 495 kts 309°
2026-04-27 02:18 7.79048 -78.30835 31944 ft 495 kts 309°
2026-04-27 02:18 7.83539 -78.36057 31303 ft 490 kts 309°
2026-04-27 02:19 7.85779 -78.38662 30447 ft 493 kts 309°
2026-04-27 02:19 7.88032 -78.41282 29492 ft 496 kts 309°
2026-04-27 02:19 7.90298 -78.43918 28484 ft 499 kts 309°
2026-04-27 02:19 7.92573 -78.46565 27531 ft 500 kts 310°
2026-04-27 02:20 7.94854 -78.49221 26508 ft 502 kts 310°
2026-04-27 02:20 7.97135 -78.51876 25769 ft 497 kts 310°
2026-04-27 02:20 7.99391 -78.54502 25123 ft 495 kts 310°
2026-04-27 02:20 8.01638 -78.57120 24421 ft 489 kts 310°
2026-04-27 02:21 8.03847 -78.59693 23722 ft 484 kts 310°
2026-04-27 02:21 8.06048 -78.62257 22932 ft 481 kts 310°
2026-04-27 02:21 8.08221 -78.64789 22241 ft 475 kts 310°
2026-04-27 02:21 8.10368 -78.67292 21614 ft 468 kts 310°
2026-04-27 02:22 8.12488 -78.69763 20973 ft 463 kts 310°
2026-04-27 02:22 8.14582 -78.72203 20403 ft 456 kts 310°
2026-04-27 02:22 8.16633 -78.74595 20019 ft 445 kts 310°
2026-04-27 02:22 8.18624 -78.76917 19408 ft 442 kts 310°
2026-04-27 02:23 8.20635 -78.79262 18697 ft 441 kts 310°
2026-04-27 02:23 8.22668 -78.81632 18007 ft 439 kts 311°
2026-04-27 02:23 8.24836 -78.83805 17175 ft 438 kts 316°
2026-04-27 02:23 8.26986 -78.85861 16561 ft 427 kts 316°
2026-04-27 02:24 8.29100 -78.87907 15989 ft 416 kts 316°
2026-04-27 02:24 8.31166 -78.89920 15366 ft 411 kts 316°
2026-04-27 02:24 8.33219 -78.91927 14752 ft 410 kts 316°
2026-04-27 02:24 8.35265 -78.93930 14155 ft 409 kts 316°
2026-04-27 02:25 8.37300 -78.95922 13514 ft 408 kts 316°
2026-04-27 02:25 8.39333 -78.97913 12839 ft 405 kts 316°
2026-04-27 02:25 8.41346 -78.99884 12227 ft 401 kts 316°
2026-04-27 02:25 8.43334 -79.01832 11647 ft 396 kts 316°
2026-04-27 02:26 8.45299 -79.03758 11081 ft 391 kts 316°
2026-04-27 02:26 8.47244 -79.05663 10516 ft 387 kts 316°
2026-04-27 02:26 8.49169 -79.07550 9968 ft 384 kts 316°
2026-04-27 02:26 8.51077 -79.09421 9381 ft 380 kts 316°
2026-04-27 02:27 8.52962 -79.11269 8813 ft 376 kts 316°
2026-04-27 02:27 8.54829 -79.13100 8275 ft 372 kts 316°
2026-04-27 02:27 8.56675 -79.14910 7741 ft 368 kts 316°
2026-04-27 02:27 8.58500 -79.16700 7211 ft 364 kts 316°
2026-04-27 02:28 8.60307 -79.18473 6713 ft 360 kts 316°
2026-04-27 02:28 8.62085 -79.20217 6441 ft 351 kts 316°
2026-04-27 02:28 8.63811 -79.21911 6240 ft 341 kts 316°
2026-04-27 02:28 8.65487 -79.23555 6034 ft 331 kts 316°
2026-04-27 02:29 8.67112 -79.25150 5851 ft 321 kts 316°
2026-04-27 02:29 8.68687 -79.26696 5680 ft 311 kts 316°
2026-04-27 02:29 8.70218 -79.28198 5511 ft 302 kts 316°
2026-04-27 02:29 8.71699 -79.29653 5366 ft 293 kts 316°
2026-04-27 02:30 8.73137 -79.31065 5209 ft 284 kts 316°
2026-04-27 02:30 8.74531 -79.32434 5080 ft 275 kts 316°
2026-04-27 02:30 8.75881 -79.33760 4949 ft 266 kts 316°
2026-04-27 02:30 8.77190 -79.35045 4815 ft 258 kts 316°
2026-04-27 02:31 8.78456 -79.36289 4694 ft 250 kts 316°
2026-04-27 02:31 8.79678 -79.37490 4567 ft 241 kts 316°
2026-04-27 02:31 8.80862 -79.38653 4436 ft 233 kts 316°
2026-04-27 02:31 8.82004 -79.39775 4315 ft 225 kts 316°
2026-04-27 02:32 8.83104 -79.40855 4178 ft 217 kts 317°
2026-04-27 02:32 8.84198 -79.41930 4086 ft 222 kts 316°
2026-04-27 02:32 8.85318 -79.43031 3988 ft 226 kts 316°
2026-04-27 02:32 8.86439 -79.44134 3877 ft 222 kts 316°
2026-04-27 02:33 8.87508 -79.45185 3808 ft 207 kts 317°
2026-04-27 02:33 8.88519 -79.46177 3635 ft 198 kts 317°
2026-04-27 02:33 8.89674 -79.46865 3315 ft 188 kts 348°
2026-04-27 02:33 8.90901 -79.46839 3054 ft 169 kts 13°
2026-04-27 02:34 8.91998 -79.46466 2816 ft 166 kts 25°
2026-04-27 02:34 8.93020 -79.45925 2587 ft 165 kts 30°
2026-04-27 02:34 8.94021 -79.45355 2357 ft 165 kts 30°
2026-04-27 02:34 8.95019 -79.44788 2135 ft 164 kts 30°
2026-04-27 02:35 8.96008 -79.44226 1918 ft 162 kts 30°
2026-04-27 02:35 8.96960 -79.43691 1787 ft 156 kts 30°
2026-04-27 02:35 8.97903 -79.43179 1575 ft 152 kts 29°
2026-04-27 02:35 8.98836 -79.42651 1273 ft 155 kts 31°
2026-04-27 02:36 8.99749 -79.42107 1030 ft 149 kts 31°
2026-04-27 02:36 9.00636 -79.41594 867 ft 147 kts 30°
2026-04-27 02:36 9.01544 -79.41082 758 ft 153 kts 29°
2026-04-27 02:36 9.02485 -79.40561 640 ft 153 kts 29°
2026-04-27 02:37 9.03402 -79.40041 407 ft 149 kts 30°
2026-04-27 02:37 9.04295 -79.39532 178 ft 145 kts 30°
2026-04-27 02:37 9.05153 -79.39038 34 ft 135 kts 28°
2026-04-27 02:37 9.05860 -79.38637 34 ft 96 kts 29°
2026-04-27 02:38 9.06275 -79.38408 33 ft 49 kts 22°
2026-04-27 02:38 9.06557 -79.38377 32 ft 27 kts 359°
2026-04-27 02:38 9.06648 -79.38397 32 ft 13 kts 322°
2026-04-27 02:38 9.06685 -79.38481 32 ft 9 kts 268°
2026-04-27 02:39 9.06694 -79.38530 32 ft 5 kts 296°
2026-04-27 02:39 9.06707 -79.38555 32 ft 0 kts 300°